KG5ELE Weather Reports


Display with metric or nautical units.
time (UTC)temp
F
wind
direction
speed
MPH
gust
MPH
rain 1hr
in
rain 24hr
in
rain mn
in
humidity
%
barometer
mb
20260508033004 54 0 0.0 0.0 0.00 0.00 0.00 35 1010.7
20260508031504 53 138 0.0 1.0 0.00 0.00 0.00 35 1010.3
20260508030004 54 0 0.0 0.0 0.00 0.00 0.00 31 1010.1
20260508024525 56 0 0.0 0.0 0.00 0.00 0.00 28 1009.8
20260508023004 59 0 0.0 0.0 0.00 0.00 0.00 26 1009.5
20260508021504 61 0 0.0 0.0 0.00 0.00 0.00 23 1009.2
20260508020004 64 0 0.0 0.0 0.00 0.00 0.00 21 1009.0
20260508014504 68 0 0.0 0.0 0.00 0.00 0.00 17 1008.9
20260508013011 72 0 0.0 0.0 0.00 0.00 0.00 13 1008.9
20260508011504 74 0 0.0 0.0 0.00 0.00 0.00 11 1008.8
20260508010004 73 141 0.0 2.0 0.00 0.00 0.00 11 1008.9
20260508004504 74 79 0.0 1.0 0.00 0.00 0.00 10 1009.0
20260508003004 74 101 0.0 3.0 0.00 0.00 0.00 11 1009.1
20260508001504 74 56 1.0 4.0 0.00 0.00 0.00 11 1009.2
20260508000025 74 143 0.0 2.0 0.00 0.00 0.00 11 1009.3
20260507234525 73 71 1.0 3.0 0.00 0.00 0.00 11 1009.2
20260507233004 73 61 1.0 3.0 0.00 0.00 0.00 12 1009.4
20260507231504 73 40 1.0 4.0 0.00 0.00 0.00 12 1009.5
20260507230025 73 272 1.0 4.0 0.00 0.00 0.00 13 1009.7
20260507224504 73 86 2.0 4.0 0.00 0.00 0.00 13 1010.0
20260507223004 73 107 1.0 3.0 0.00 0.00 0.00 13 1010.2
20260507221504 73 284 1.0 3.0 0.00 0.00 0.00 14 1010.5
20260507220004 72 39 2.0 5.0 0.00 0.00 0.00 15 1010.6
20260507214503 74 264 2.0 4.0 0.00 0.00 0.00 15 1010.9
20260507213004 74 264 1.0 4.0 0.00 0.00 0.00 16 1011.3
20260507211525 74 250 2.0 8.0 0.00 0.00 0.00 15 1011.6
20260507210004 73 63 1.0 4.0 0.00 0.00 0.00 17 1012.0
20260507204504 73 90 2.0 6.0 0.00 0.00 0.00 16 1012.3
20260507203025 74 204 1.0 4.0 0.00 0.00 0.00 16 1012.6
20260507201504 72 18 2.0 5.0 0.00 0.00 0.00 15 1013.0
20260507200003 71 276 1.0 4.0 0.00 0.00 0.00 17 1013.2
20260507194503 71 316 1.0 6.0 0.00 0.00 0.00 17 1013.5
20260507193003 70 37 1.0 4.0 0.00 0.00 0.00 19 1013.8
20260507191503 69 310 2.0 5.0 0.00 0.00 0.00 21 1014.1
20260507190004 69 296 2.0 6.0 0.00 0.00 0.00 22 1014.4
20260507184503 69 33 2.0 5.0 0.00 0.00 0.00 18 1014.6
20260507183024 69 32 1.0 5.0 0.00 0.00 0.00 23 1014.9
20260507181503 68 253 1.0 6.0 0.00 0.00 0.00 25 1015.2
20260507180003 66 288 2.0 6.0 0.00 0.00 0.00 24 1015.4
20260507174503 66 12 1.0 4.0 0.00 0.00 0.00 25 1015.6
20260507173003 68 287 1.0 7.0 0.00 0.00 0.00 22 1015.8
20260507171503 67 235 0.0 3.0 0.00 0.00 0.00 26 1016.0
20260507170003 66 140 0.0 1.0 0.00 0.00 0.00 30 1016.1
20260507164503 64 246 1.0 3.0 0.00 0.00 0.00 32 1016.3
20260507163024 64 226 0.0 1.0 0.00 0.00 0.00 34 1016.5
20260507161524 60 51 0.0 4.0 0.00 0.00 0.00 39 1016.6
20260507160003 59 22 1.0 5.0 0.00 0.00 0.00 41 1016.9
20260507154524 57 320 0.0 3.0 0.00 0.00 0.00 46 1016.9
20260507153024 55 272 1.0 5.0 0.00 0.00 0.00 48 1017.2
20260507151524 54 280 1.0 5.0 0.00 0.00 0.00 51 1017.3
20260507150024 53 262 1.0 7.0 0.00 0.00 0.00 54 1017.5
20260507144505 52 269 1.0 4.0 0.00 0.00 0.00 57 1017.6
20260507143005 51 305 1.0 4.0 0.00 0.00 0.00 58 1017.7
20260507141505 50 285 1.0 4.0 0.00 0.00 0.00 59 1017.9
20260507140006 49 263 1.0 6.0 0.00 0.00 0.00 57 1017.9
20260507134505 47 31 0.0 1.0 0.00 0.00 0.00 57 1018.0
20260507133005 44 65 0.0 2.0 0.00 0.00 0.00 59 1018.0
20260507131526 42 95 0.0 3.0 0.00 0.00 0.00 62 1017.8
20260507130005 39 273 0.0 1.0 0.00 0.00 0.00 67 1017.6
20260507124526 36 0 0.0 0.0 0.00 0.00 0.00 76 1017.6
20260507123005 33 0 0.0 0.0 0.00 0.00 0.00 75 1017.4
20260507121505 33 0 0.0 0.0 0.00 0.00 0.00 75 1017.4
20260507120026 34 0 0.0 0.0 0.00 0.00 0.00 73 1017.3
20260507114526 33 0 0.0 0.0 0.00 0.00 0.00 73 1017.3
20260507113006 34 0 0.0 0.0 0.00 0.00 0.00 72 1017.3
20260507111526 35 0 0.0 0.0 0.00 0.00 0.00 71 1017.3
20260507110005 35 0 0.0 0.0 0.00 0.00 0.00 71 1017.3
20260507104526 35 0 0.0 0.0 0.00 0.00 0.00 72 1017.1
20260507103005 35 0 0.0 0.0 0.00 0.00 0.00 70 1017.0
20260507101506 36 0 0.0 0.0 0.00 0.00 0.00 70 1016.8
20260507100005 36 0 0.0 0.0 0.00 0.00 0.00 69 1016.6
20260507094505 38 0 0.0 0.0 0.00 0.00 0.00 68 1016.4
20260507093005 38 0 0.0 0.0 0.00 0.00 0.00 69 1016.2
20260507091505 38 0 0.0 0.0 0.00 0.00 0.00 72 1016.2
20260507090005 38 0 0.0 0.0 0.00 0.00 0.00 72 1016.1
20260507084505 39 0 0.0 0.0 0.00 0.00 0.00 72 1015.9
20260507083005 39 0 0.0 0.0 0.00 0.00 0.00 71 1015.8
20260507081504 40 0 0.0 0.0 0.00 0.00 0.00 68 1015.8
20260507080026 42 0 0.0 0.0 0.00 0.00 0.00 68 1015.7
20260507074504 41 0 0.0 0.0 0.00 0.00 0.00 67 1015.6
20260507073026 42 0 0.0 0.0 0.00 0.00 0.00 66 1015.7
20260507071504 43 0 0.0 0.0 0.00 0.00 0.00 66 1015.5
20260507070009 44 0 0.0 0.0 0.00 0.00 0.00 63 1015.4
20260507064504 45 0 0.0 0.0 0.00 0.00 0.00 62 1015.2
20260507063004 46 0 0.0 0.0 0.00 0.00 0.00 59 1015.0
20260507061504 48 0 0.0 0.0 0.00 0.00 0.00 55 1014.8
20260507060004 49 0 0.0 0.0 0.00 0.00 0.00 55 1014.7
20260507054504 50 0 0.0 0.0 0.00 0.00 0.00 54 1014.6
20260507053026 51 0 0.0 0.0 0.00 0.00 0.00 51 1014.4
20260507051504 52 0 0.0 0.0 0.00 0.00 0.00 49 1014.3
20260507050005 54 0 0.0 0.0 0.00 0.00 0.00 47 1014.2
20260507044525 53 0 0.0 0.0 0.00 0.00 0.00 48 1014.0
20260507043004 52 108 0.0 2.0 0.00 0.00 0.00 50 1013.5
20260507041504 53 0 0.0 0.0 0.00 0.00 0.00 49 1013.3
20260507040004 54 0 0.0 0.0 0.00 0.00 0.00 46 1012.8
20260507034504 56 288 0.0 1.0 0.00 0.00 0.00 44 1012.5